| time (UTC) | temp C | wind direction | speed KPH | gust KPH | rain 1hr cm | rain 24hr cm | rain mn cm | humidity % | barometer mb |
| 20260503185026 | 13 | 264 | 11.3 | 19.3 | 0.00 | 0.00 | 0.00 | 45 | 1013.4 |
| 20260503184504 | 13 | 279 | 12.9 | 22.5 | 0.00 | 0.00 | 0.00 | 44 | 1013.5 |
| 20260503184004 | 13 | 281 | 9.7 | 24.1 | 0.00 | 0.00 | 0.00 | 40 | 1013.6 |
| 20260503183505 | 13 | 271 | 9.7 | 24.1 | 0.00 | 0.00 | 0.00 | 44 | 1013.6 |
| 20260503183005 | 13 | 267 | 9.7 | 20.9 | 0.00 | 0.00 | 0.00 | 44 | 1013.6 |
| 20260503182526 | 13 | 261 | 9.7 | 20.9 | 0.00 | 0.00 | 0.00 | 43 | 1013.7 |
| 20260503182006 | 13 | 251 | 9.7 | 20.9 | 0.00 | 0.00 | 0.00 | 44 | 1013.7 |
| 20260503181505 | 12 | 237 | 9.7 | 20.9 | 0.00 | 0.00 | 0.00 | 45 | 1013.8 |
| 20260503181005 | 13 | 233 | 8.0 | 20.9 | 0.00 | 0.00 | 0.00 | 45 | 1013.7 |
| 20260503180505 | 13 | 252 | 9.7 | 17.7 | 0.00 | 0.00 | 0.00 | 43 | 1013.7 |
| 20260503180005 | 13 | 264 | 9.7 | 17.7 | 0.00 | 0.00 | 0.00 | 46 | 1013.8 |
| 20260503175525 | 13 | 274 | 11.3 | 25.7 | 0.00 | 0.00 | 0.00 | 43 | 1013.8 |
| 20260503175025 | 13 | 289 | 11.3 | 25.7 | 0.00 | 0.00 | 0.00 | 40 | 1013.8 |
| 20260503174525 | 13 | 297 | 9.7 | 24.1 | 0.00 | 0.00 | 0.00 | 44 | 1013.9 |
| 20260503174004 | 13 | 286 | 8.0 | 24.1 | 0.00 | 0.00 | 0.00 | 40 | 1013.9 |
| 20260503173526 | 13 | 272 | 6.4 | 20.9 | 0.00 | 0.00 | 0.00 | 43 | 1014.0 |
| 20260503173005 | 13 | 256 | 6.4 | 16.1 | 0.00 | 0.00 | 0.00 | 47 | 1013.9 |
| 20260503172504 | 12 | 237 | 8.0 | 19.3 | 0.00 | 0.00 | 0.00 | 42 | 1014.0 |
| 20260503172004 | 12 | 229 | 6.4 | 24.1 | 0.00 | 0.00 | 0.00 | 48 | 1014.1 |
| 20260503171504 | 12 | 240 | 6.4 | 24.1 | 0.00 | 0.00 | 0.00 | 46 | 1014.2 |
| 20260503171005 | 11 | 266 | 8.0 | 16.1 | 0.00 | 0.00 | 0.00 | 47 | 1014.2 |
| 20260503170504 | 11 | 268 | 9.7 | 19.3 | 0.00 | 0.00 | 0.00 | 44 | 1014.2 |
| 20260503151005 | 10 | 254 | 6.4 | 20.9 | 0.00 | 0.00 | 0.00 | 51 | 1015.1 |
| 20260503150504 | 10 | 248 | 6.4 | 20.9 | 0.00 | 0.00 | 0.00 | 50 | 1015.2 |
| 20260503131026 | 5 | 215 | 6.4 | 12.9 | 0.00 | 0.00 | 0.00 | 80 | 1015.6 |
| 20260503130505 | 5 | 215 | 3.2 | 12.9 | 0.00 | 0.00 | 0.00 | 82 | 1015.6 |
| 20260503110504 | -2 | 0 | 0.0 | 0.0 | 0.00 | 0.00 | 0.00 | 91 | 1015.3 |
| 20260503090504 | -1 | 0 | 0.0 | 0.0 | 0.00 | 0.00 | 0.00 | 88 | 1014.5 |
| 20260503081504 | -1 | 0 | 0.0 | 0.0 | 0.00 | 0.00 | 0.00 | 85 | 1014.3 |
| 20260503081004 | -1 | 0 | 0.0 | 0.0 | 0.00 | 0.00 | 0.00 | 85 | 1014.4 |
| 20260503080504 | -1 | 0 | 0.0 | 0.0 | 0.00 | 0.00 | 0.00 | 85 | 1014.4 |
| 20260503072526 | 0 | 0 | 0.0 | 0.0 | 0.00 | 0.00 | 0.00 | 82 | 1014.2 |
| 20260503072004 | 0 | 0 | 0.0 | 0.0 | 0.00 | 0.00 | 0.00 | 82 | 1014.2 |
| 20260503071504 | 0 | 0 | 0.0 | 0.0 | 0.00 | 0.00 | 0.00 | 82 | 1014.1 |
| 20260503071025 | 0 | 0 | 0.0 | 0.0 | 0.00 | 0.00 | 0.00 | 81 | 1014.1 |
| 20260503070504 | 0 | 0 | 0.0 | 0.0 | 0.00 | 0.00 | 0.00 | 81 | 1014.1 |
| 20260503055025 | 2 | 281 | 1.6 | 3.2 | 0.00 | 0.00 | 0.00 | 74 | 1014.2 |
| 20260503054525 | 2 | 280 | 1.6 | 3.2 | 0.00 | 0.00 | 0.00 | 74 | 1014.2 |
| 20260503054004 | 3 | 276 | 1.6 | 3.2 | 0.00 | 0.00 | 0.00 | 74 | 1014.2 |
| 20260503053505 | 3 | 272 | 1.6 | 4.8 | 0.00 | 0.00 | 0.00 | 74 | 1014.3 |
| 20260503053004 | 3 | 274 | 0.0 | 4.8 | 0.00 | 0.00 | 0.00 | 74 | 1014.3 |
| 20260503052504 | 3 | 282 | 0.0 | 3.2 | 0.00 | 0.00 | 0.00 | 74 | 1014.3 |
| 20260503052004 | 3 | 0 | 0.0 | 0.0 | 0.00 | 0.00 | 0.00 | 74 | 1014.3 |
| 20260503051504 | 3 | 0 | 0.0 | 0.0 | 0.00 | 0.00 | 0.00 | 74 | 1014.3 |
| 20260503051004 | 3 | 264 | 0.0 | 1.6 | 0.00 | 0.00 | 0.00 | 74 | 1014.3 |
| 20260503050504 | 3 | 263 | 1.6 | 1.6 | 0.00 | 0.00 | 0.00 | 74 | 1014.4 |
| 20260503050005 | 3 | 265 | 1.6 | 3.2 | 0.00 | 0.00 | 0.00 | 73 | 1014.4 |
| 20260503045505 | 3 | 272 | 1.6 | 6.4 | 0.00 | 0.00 | 0.00 | 73 | 1014.5 |
| 20260503045005 | 3 | 275 | 1.6 | 6.4 | 0.00 | 0.00 | 0.00 | 73 | 1014.5 |
| 20260503044504 | 3 | 277 | 0.0 | 4.8 | 0.00 | 0.00 | 0.00 | 73 | 1014.5 |
| 20260503044004 | 3 | 278 | 0.0 | 4.8 | 0.00 | 0.00 | 0.00 | 72 | 1014.4 |
| 20260503043504 | 3 | 0 | 0.0 | 0.0 | 0.00 | 0.00 | 0.00 | 72 | 1014.5 |
| 20260503043005 | 3 | 272 | 0.0 | 3.2 | 0.00 | 0.00 | 0.00 | 72 | 1014.4 |
| 20260503042504 | 3 | 272 | 1.6 | 3.2 | 0.00 | 0.00 | 0.00 | 72 | 1014.5 |
| 20260503042004 | 3 | 286 | 1.6 | 3.2 | 0.00 | 0.00 | 0.00 | 71 | 1014.5 |
| 20260503041504 | 3 | 282 | 1.6 | 3.2 | 0.00 | 0.00 | 0.00 | 70 | 1014.4 |
| 20260503041004 | 3 | 277 | 3.2 | 3.2 | 0.00 | 0.00 | 0.00 | 70 | 1014.5 |
| 20260503040504 | 3 | 279 | 3.2 | 4.8 | 0.00 | 0.00 | 0.00 | 70 | 1014.5 |
| 20260503040029 | 3 | 284 | 3.2 | 4.8 | 0.00 | 0.00 | 0.00 | 70 | 1014.5 |
| 20260503035525 | 3 | 287 | 3.2 | 4.8 | 0.00 | 0.00 | 0.00 | 69 | 1014.5 |
| 20260503035004 | 3 | 283 | 1.6 | 8.0 | 0.00 | 0.00 | 0.00 | 69 | 1014.6 |
| 20260503034504 | 3 | 278 | 1.6 | 8.0 | 0.00 | 0.00 | 0.00 | 69 | 1014.5 |
| 20260503034005 | 3 | 278 | 1.6 | 6.4 | 0.00 | 0.00 | 0.00 | 70 | 1014.5 |
| 20260503033504 | 4 | 278 | 1.6 | 6.4 | 0.00 | 0.00 | 0.00 | 69 | 1014.5 |
| 20260503033005 | 4 | 281 | 3.2 | 6.4 | 0.00 | 0.00 | 0.00 | 69 | 1014.5 |
| 20260503032505 | 4 | 281 | 3.2 | 6.4 | 0.00 | 0.00 | 0.00 | 68 | 1014.5 |
| 20260503032004 | 4 | 278 | 3.2 | 4.8 | 0.00 | 0.00 | 0.00 | 68 | 1014.6 |
| 20260503031504 | 4 | 279 | 3.2 | 4.8 | 0.00 | 0.00 | 0.00 | 68 | 1014.6 |
| 20260503031004 | 4 | 279 | 3.2 | 4.8 | 0.00 | 0.00 | 0.00 | 68 | 1014.6 |
| 20260503030504 | 4 | 275 | 3.2 | 4.8 | 0.00 | 0.00 | 0.00 | 68 | 1014.6 |
| 20260503030025 | 4 | 276 | 3.2 | 4.8 | 0.00 | 0.00 | 0.00 | 67 | 1014.6 |
| 20260503025504 | 4 | 281 | 3.2 | 8.0 | 0.00 | 0.00 | 0.00 | 67 | 1014.6 |
| 20260503025004 | 4 | 282 | 3.2 | 8.0 | 0.00 | 0.00 | 0.00 | 67 | 1014.6 |
| 20260503024504 | 4 | 281 | 3.2 | 6.4 | 0.00 | 0.00 | 0.00 | 67 | 1014.7 |
| 20260503024005 | 4 | 279 | 3.2 | 4.8 | 0.00 | 0.00 | 0.00 | 67 | 1014.7 |
| 20260503023504 | 4 | 279 | 4.8 | 6.4 | 0.00 | 0.00 | 0.00 | 67 | 1014.8 |
| 20260503023025 | 4 | 283 | 4.8 | 6.4 | 0.00 | 0.00 | 0.00 | 66 | 1014.7 |
| 20260503022505 | 4 | 282 | 4.8 | 6.4 | 0.00 | 0.00 | 0.00 | 66 | 1014.7 |
| 20260503022004 | 4 | 280 | 4.8 | 6.4 | 0.00 | 0.00 | 0.00 | 66 | 1014.6 |
| 20260503021504 | 5 | 282 | 4.8 | 9.7 | 0.00 | 0.00 | 0.00 | 66 | 1014.7 |
| 20260503021005 | 5 | 284 | 3.2 | 9.7 | 0.00 | 0.00 | 0.00 | 66 | 1014.6 |
| 20260503020504 | 5 | 281 | 3.2 | 9.7 | 0.00 | 0.00 | 0.00 | 66 | 1014.7 |
| 20260503020004 | 5 | 281 | 3.2 | 8.0 | 0.00 | 0.00 | 0.00 | 66 | 1014.6 |
| 20260503015505 | 5 | 289 | 3.2 | 8.0 | 0.00 | 0.00 | 0.00 | 65 | 1014.6 |
| 20260503015004 | 5 | 292 | 3.2 | 6.4 | 0.00 | 0.03 | 0.00 | 65 | 1014.6 |
| 20260503014504 | 5 | 283 | 1.6 | 4.8 | 0.00 | 0.03 | 0.00 | 66 | 1014.5 |
| 20260503014004 | 5 | 274 | 1.6 | 4.8 | 0.00 | 0.03 | 0.00 | 65 | 1014.6 |
| 20260503013504 | 5 | 272 | 1.6 | 6.4 | 0.00 | 0.05 | 0.00 | 66 | 1014.6 |
| 20260503013005 | 5 | 280 | 1.6 | 6.4 | 0.00 | 0.08 | 0.00 | 64 | 1014.6 |
| 20260503012505 | 5 | 281 | 1.6 | 6.4 | 0.00 | 0.13 | 0.00 | 64 | 1014.5 |
| 20260503012003 | 5 | 287 | 3.2 | 6.4 | 0.00 | 0.15 | 0.00 | 65 | 1014.6 |
| 20260503011504 | 5 | 283 | 3.2 | 6.4 | 0.00 | 0.18 | 0.00 | 64 | 1014.5 |
| 20260503011005 | 5 | 275 | 3.2 | 6.4 | 0.00 | 0.20 | 0.00 | 64 | 1014.5 |
| 20260503010504 | 5 | 273 | 3.2 | 6.4 | 0.00 | 0.20 | 0.00 | 64 | 1014.5 |
| 20260503010004 | 5 | 278 | 4.8 | 6.4 | 0.00 | 0.23 | 0.00 | 64 | 1014.5 |
| 20260503005504 | 5 | 280 | 4.8 | 6.4 | 0.00 | 0.23 | 0.00 | 64 | 1014.4 |
| 20260503005004 | 5 | 279 | 4.8 | 8.0 | 0.00 | 0.23 | 0.00 | 64 | 1014.4 |
| 20260503004505 | 5 | 285 | 6.4 | 11.3 | 0.00 | 0.23 | 0.00 | 64 | 1014.3 |
| 20260503004004 | 5 | 287 | 4.8 | 12.9 | 0.00 | 0.25 | 0.00 | 64 | 1014.2 |
| 20260503003504 | 5 | 280 | 4.8 | 12.9 | 0.00 | 0.25 | 0.00 | 65 | 1014.2 |
| 20260503003005 | 5 | 273 | 4.8 | 8.0 | 0.00 | 0.25 | 0.00 | 66 | 1014.2 |
| 20260503002504 | 5 | 278 | 4.8 | 4.8 | 0.00 | 0.25 | 0.00 | 66 | 1014.1 |
| 20260503002026 | 5 | 285 | 4.8 | 6.4 | 0.00 | 0.25 | 0.00 | 65 | 1014.1 |
| 20260503001525 | 5 | 283 | 4.8 | 6.4 | 0.00 | 0.25 | 0.00 | 65 | 1014.1 |
| 20260503001025 | 5 | 281 | 4.8 | 8.0 | 0.00 | 0.25 | 0.00 | 66 | 1014.1 |
| 20260503000504 | 5 | 283 | 4.8 | 9.7 | 0.00 | 0.25 | 0.00 | 64 | 1014.0 |
| 20260503000004 | 5 | 279 | 4.8 | 9.7 | 0.00 | 0.25 | 0.00 | 65 | 1013.9 |
| 20260502235525 | 5 | 284 | 6.4 | 9.7 | 0.00 | 0.25 | 0.00 | 65 | 1013.9 |
| 20260502235024 | 5 | 306 | 8.0 | 12.9 | 0.00 | 0.25 | 0.00 | 65 | 1013.8 |
| 20260502234505 | 5 | 299 | 6.4 | 12.9 | 0.00 | 0.25 | 0.00 | 65 | 1013.8 |
| 20260502234025 | 5 | 285 | 4.8 | 11.3 | 0.00 | 0.25 | 0.00 | 67 | 1013.8 |
| 20260502233504 | 6 | 280 | 3.2 | 9.7 | 0.00 | 0.25 | 0.00 | 69 | 1013.7 |
| 20260502233004 | 6 | 281 | 3.2 | 8.0 | 0.00 | 0.25 | 0.00 | 69 | 1013.7 |
| 20260502232504 | 6 | 282 | 4.8 | 8.0 | 0.00 | 0.25 | 0.00 | 70 | 1013.7 |
| 20260502232004 | 6 | 277 | 6.4 | 6.4 | 0.00 | 0.25 | 0.00 | 68 | 1013.7 |
| 20260502231504 | 6 | 286 | 6.4 | 11.3 | 0.00 | 0.25 | 0.00 | 68 | 1013.7 |
| 20260502231003 | 6 | 298 | 6.4 | 11.3 | 0.00 | 0.25 | 0.00 | 67 | 1013.7 |
| 20260502230504 | 6 | 305 | 6.4 | 9.7 | 0.00 | 0.25 | 0.00 | 66 | 1013.7 |
| 20260502230005 | 6 | 300 | 8.0 | 11.3 | 0.00 | 0.25 | 0.00 | 66 | 1013.6 |
| 20260502225505 | 6 | 296 | 8.0 | 11.3 | 0.00 | 0.25 | 0.00 | 65 | 1013.6 |
| 20260502225004 | 6 | 299 | 6.4 | 11.3 | 0.00 | 0.25 | 0.00 | 65 | 1013.6 |
| 20260502224504 | 6 | 299 | 8.0 | 11.3 | 0.00 | 0.25 | 0.00 | 64 | 1013.5 |
| 20260502224004 | 6 | 293 | 8.0 | 16.1 | 0.00 | 0.25 | 0.00 | 65 | 1013.5 |
| 20260502223504 | 6 | 290 | 8.0 | 16.1 | 0.00 | 0.25 | 0.00 | 63 | 1013.5 |
| 20260502223026 | 6 | 296 | 8.0 | 12.9 | 0.00 | 0.25 | 0.00 | 64 | 1013.4 |
| 20260502222504 | 7 | 293 | 8.0 | 16.1 | 0.00 | 0.28 | 0.00 | 63 | 1013.4 |
| 20260502222004 | 6 | 288 | 9.7 | 16.1 | 0.00 | 0.28 | 0.00 | 63 | 1013.4 |
| 20260502221504 | 7 | 291 | 9.7 | 20.9 | 0.00 | 0.30 | 0.00 | 63 | 1013.3 |
| 20260502221004 | 7 | 289 | 8.0 | 20.9 | 0.00 | 0.30 | 0.00 | 62 | 1013.3 |
| 20260502220504 | 7 | 293 | 9.7 | 16.1 | 0.00 | 0.33 | 0.00 | 64 | 1013.3 |
| 20260502220004 | 7 | 299 | 9.7 | 16.1 | 0.00 | 0.33 | 0.00 | 66 | 1013.3 |
| 20260502215525 | 6 | 302 | 8.0 | 19.3 | 0.00 | 0.33 | 0.00 | 65 | 1013.3 |
| 20260502215004 | 6 | 300 | 6.4 | 19.3 | 0.00 | 0.36 | 0.00 | 66 | 1013.3 |
| 20260502214504 | 6 | 288 | 6.4 | 16.1 | 0.00 | 0.38 | 0.00 | 68 | 1013.3 |
| 20260502214004 | 6 | 280 | 8.0 | 14.5 | 0.00 | 0.41 | 0.00 | 69 | 1013.4 |
| 20260502213504 | 6 | 288 | 8.0 | 14.5 | 0.00 | 0.43 | 0.00 | 69 | 1013.4 |
| 20260502213004 | 6 | 290 | 6.4 | 12.9 | 0.00 | 0.48 | 0.00 | 69 | 1013.3 |
| 20260502212525 | 6 | 283 | 6.4 | 14.5 | 0.00 | 0.53 | 0.00 | 69 | 1013.3 |
| 20260502212025 | 6 | 273 | 6.4 | 14.5 | 0.00 | 0.56 | 0.00 | 68 | 1013.2 |
| 20260502211526 | 6 | 276 | 6.4 | 12.9 | 0.00 | 0.56 | 0.00 | 68 | 1013.2 |
| 20260502211004 | 6 | 278 | 6.4 | 12.9 | 0.00 | 0.58 | 0.00 | 67 | 1013.2 |
| 20260502210504 | 6 | 277 | 4.8 | 14.5 | 0.00 | 0.58 | 0.00 | 69 | 1013.1 |
| 20260502210004 | 6 | 276 | 4.8 | 14.5 | 0.00 | 0.58 | 0.00 | 68 | 1013.1 |
| 20260502205505 | 6 | 269 | 6.4 | 6.4 | 0.00 | 0.61 | 0.00 | 71 | 1013.1 |
| 20260502205003 | 6 | 277 | 8.0 | 11.3 | 0.00 | 0.61 | 0.00 | 69 | 1013.1 |
| 20260502204503 | 6 | 286 | 8.0 | 12.9 | 0.00 | 0.61 | 0.00 | 67 | 1013.0 |
| 20260502204024 | 6 | 286 | 8.0 | 14.5 | 0.00 | 0.61 | 0.00 | 67 | 1013.0 |
| 20260502203504 | 6 | 292 | 8.0 | 14.5 | 0.00 | 0.61 | 0.00 | 67 | 1013.0 |
| 20260502203025 | 6 | 301 | 6.4 | 12.9 | 0.00 | 0.61 | 0.00 | 66 | 1013.1 |
| 20260502202504 | 7 | 286 | 6.4 | 14.5 | 0.00 | 0.61 | 0.00 | 67 | 1013.1 |
| 20260502202024 | 6 | 290 | 6.4 | 14.5 | 0.00 | 0.61 | 0.00 | 69 | 1013.1 |
| 20260502201504 | 7 | 292 | 4.8 | 12.9 | 0.00 | 0.64 | 0.00 | 69 | 1013.1 |
| 20260502201003 | 6 | 278 | 4.8 | 11.3 | 0.00 | 0.66 | 0.00 | 69 | 1013.1 |
| 20260502200525 | 6 | 305 | 6.4 | 9.7 | 0.00 | 0.69 | 0.00 | 69 | 1013.2 |
| 20260502200004 | 6 | 305 | 8.0 | 11.3 | 0.00 | 0.69 | 0.00 | 70 | 1013.2 |
| 20260502195524 | 6 | 299 | 8.0 | 12.9 | 0.00 | 0.71 | 0.00 | 69 | 1013.3 |
| 20260502195004 | 6 | 304 | 9.7 | 16.1 | 0.00 | 0.74 | 0.00 | 68 | 1013.3 |
| 20260502194504 | 6 | 299 | 11.3 | 19.3 | 0.00 | 0.74 | 0.00 | 69 | 1013.4 |
| 20260502194025 | 6 | 303 | 11.3 | 19.3 | 0.00 | 0.76 | 0.00 | 69 | 1013.5 |
| 20260502193504 | 6 | 307 | 9.7 | 17.7 | 0.00 | 0.76 | 0.00 | 68 | 1013.5 |
| 20260502193004 | 6 | 306 | 8.0 | 17.7 | 0.00 | 0.76 | 0.00 | 69 | 1013.6 |
| 20260502192504 | 6 | 313 | 9.7 | 14.5 | 0.00 | 0.76 | 0.00 | 69 | 1013.6 |
| 20260502192025 | 7 | 310 | 9.7 | 14.5 | 0.00 | 0.76 | 0.00 | 69 | 1013.6 |
| 20260502191525 | 7 | 302 | 9.7 | 17.7 | 0.00 | 0.76 | 0.00 | 69 | 1013.7 |
| 20260502191004 | 7 | 308 | 9.7 | 19.3 | 0.00 | 0.76 | 0.00 | 70 | 1013.7 |
| 20260502190503 | 7 | 311 | 8.0 | 19.3 | 0.00 | 0.76 | 0.00 | 69 | 1013.7 |
| 20260502190004 | 7 | 318 | 8.0 | 12.9 | 0.00 | 0.79 | 0.00 | 69 | 1013.8 |
| 20260502185525 | 7 | 329 | 8.0 | 22.5 | 0.00 | 0.79 | 0.00 | 69 | 1013.8 |